AAL300 KJFK-KLAX

Flight info

Callsign AAL300
Flight time N/A
Altitude 30000
Route COATE Q436 HERBA/N0457F320 Q436 RAAKK DKK YXU HOCKE MONEE GETCH BAE DBQ KP66E/N0451F340 AYEGI KD57A DUUZE OATHE ALS COCAN J64 TBC DNERO ANJLL4
Aircraft A321/M-SDE3FGHIRWY/LB1

Departure

Time 2026-05-09 02:49
Airport John F. Kennedy International Airport (KJFK)

Arrival

Time N/A
Airport Los Angeles International Airport (KLAX)
Time Latitude Longitude Altitude Speed Heading
2026-05-09 02:21 40.64979 -73.79248 24 ft 0 kts 331°
2026-05-09 02:36 40.64973 -73.79243 24 ft 4 kts 331°
2026-05-09 02:36 40.64949 -73.79226 27 ft 4 kts 331°
2026-05-09 02:37 40.64931 -73.79213 26 ft 4 kts 310°
2026-05-09 02:37 40.64928 -73.79189 28 ft 3 kts 241°
2026-05-09 02:37 40.64938 -73.79164 26 ft 1 kts 240°
2026-05-09 02:40 40.64938 -73.79165 23 ft 0 kts 240°
2026-05-09 02:40 40.64934 -73.79175 26 ft 5 kts 241°
2026-05-09 02:40 40.64901 -73.79252 25 ft 13 kts 240°
2026-05-09 02:40 40.64855 -73.79359 23 ft 13 kts 240°
2026-05-09 02:41 40.64810 -73.79465 23 ft 13 kts 240°
2026-05-09 02:41 40.64766 -73.79568 24 ft 13 kts 240°
2026-05-09 02:41 40.64723 -73.79671 23 ft 13 kts 241°
2026-05-09 02:41 40.64658 -73.79705 23 ft 11 kts 148°
2026-05-09 02:42 40.64594 -73.79645 23 ft 11 kts 144°
2026-05-09 02:42 40.64524 -73.79603 24 ft 11 kts 171°
2026-05-09 02:42 40.64447 -73.79594 24 ft 11 kts 174°
2026-05-09 02:42 40.64366 -73.79593 24 ft 14 kts 182°
2026-05-09 02:43 40.64253 -73.79602 24 ft 18 kts 183°
2026-05-09 02:43 40.64147 -73.79608 27 ft 14 kts 174°
2026-05-09 02:43 40.64078 -73.79514 23 ft 18 kts 122°
2026-05-09 02:43 40.64003 -73.79352 22 ft 22 kts 121°
2026-05-09 02:44 40.63923 -73.79176 20 ft 22 kts 120°
2026-05-09 02:44 40.63849 -73.79012 23 ft 20 kts 121°
2026-05-09 02:44 40.63780 -73.78860 27 ft 18 kts 121°
2026-05-09 02:44 40.63721 -73.78729 29 ft 16 kts 121°
2026-05-09 02:45 40.63663 -73.78603 28 ft 16 kts 121°
2026-05-09 02:45 40.63601 -73.78465 29 ft 20 kts 121°
2026-05-09 02:45 40.63527 -73.78300 28 ft 22 kts 120°
2026-05-09 02:45 40.63450 -73.78131 25 ft 21 kts 121°
2026-05-09 02:46 40.63376 -73.77962 24 ft 21 kts 118°
2026-05-09 02:46 40.63306 -73.77804 27 ft 19 kts 121°
2026-05-09 02:46 40.63240 -73.77659 27 ft 18 kts 121°
2026-05-09 02:46 40.63179 -73.77523 30 ft 16 kts 121°
2026-05-09 02:47 40.63119 -73.77391 28 ft 17 kts 121°
2026-05-09 02:47 40.63057 -73.77253 27 ft 17 kts 121°
2026-05-09 02:47 40.62995 -73.77116 26 ft 14 kts 121°
2026-05-09 02:47 40.62930 -73.77099 23 ft 10 kts 208°
2026-05-09 02:48 40.62872 -73.77145 24 ft 10 kts 210°
2026-05-09 02:48 40.62820 -73.77196 23 ft 7 kts 252°
2026-05-09 02:48 40.62837 -73.77257 26 ft 7 kts 297°
2026-05-09 02:48 40.62935 -73.77475 28 ft 63 kts 301°
2026-05-09 02:49 40.63282 -73.78242 22 ft 132 kts 301°
2026-05-09 02:49 40.63853 -73.79502 25 ft 186 kts 300°
2026-05-09 02:49 40.64550 -73.81041 544 ft 199 kts 300°
2026-05-09 02:49 40.64924 -73.82750 1346 ft 196 kts 264°
2026-05-09 02:50 40.64441 -73.84412 2095 ft 200 kts 231°
2026-05-09 02:50 40.63346 -73.85579 2570 ft 206 kts 217°
2026-05-09 02:50 40.62146 -73.86668 2895 ft 213 kts 217°
2026-05-09 02:50 40.60899 -73.87739 3425 ft 213 kts 209°
2026-05-09 02:51 40.59455 -73.88254 3957 ft 220 kts 188°
2026-05-09 02:51 40.57885 -73.87959 4221 ft 244 kts 164°
2026-05-09 02:51 40.56257 -73.86974 4333 ft 268 kts 161°
2026-05-09 02:51 40.54515 -73.85989 4769 ft 273 kts 168°
2026-05-09 02:52 40.52673 -73.85484 5318 ft 269 kts 182°
2026-05-09 02:52 40.50797 -73.85219 5897 ft 275 kts 175°
2026-05-09 02:52 40.49002 -73.84173 6460 ft 294 kts 148°
2026-05-09 02:52 40.47637 -73.82101 6982 ft 309 kts 121°
2026-05-09 02:53 40.47009 -73.79369 7467 ft 319 kts 94°
2026-05-09 02:53 40.47270 -73.76488 7960 ft 320 kts 66°
2026-05-09 02:53 40.48375 -73.74006 8481 ft 313 kts 40°
2026-05-09 02:53 40.50021 -73.72193 9006 ft 308 kts 28°
2026-05-09 02:54 40.51775 -73.70559 9578 ft 310 kts 27°
2026-05-09 02:54 40.52950 -73.69486 9952 ft 311 kts 27°
2026-05-09 02:54 40.54762 -73.67838 10191 ft 325 kts 27°
2026-05-09 02:54 40.56684 -73.66116 10326 ft 342 kts 27°
2026-05-09 02:55 40.58706 -73.64323 10460 ft 359 kts 27°
2026-05-09 02:55 40.60822 -73.62445 10644 ft 372 kts 27°
2026-05-09 02:55 40.62988 -73.60540 11078 ft 377 kts 27°
2026-05-09 02:55 40.65175 -73.58619 11605 ft 379 kts 27°
2026-05-09 02:56 40.67372 -73.56687 12142 ft 381 kts 27°
2026-05-09 02:56 40.69581 -73.54739 12703 ft 382 kts 27°
2026-05-09 02:56 40.71789 -73.52788 13248 ft 384 kts 27°
2026-05-09 02:56 40.74041 -73.50903 13757 ft 380 kts 19°
2026-05-09 02:57 40.76498 -73.49802 14198 ft 369 kts
2026-05-09 02:57 40.79015 -73.49708 14589 ft 357 kts 345°
2026-05-09 02:57 40.81375 -73.50572 14990 ft 350 kts 329°
2026-05-09 02:57 40.83409 -73.52262 15398 ft 343 kts 314°
2026-05-09 02:58 40.84982 -73.54588 15834 ft 339 kts 300°
2026-05-09 02:58 40.86012 -73.57376 16288 ft 338 kts 287°
2026-05-09 02:58 40.86757 -73.60333 16750 ft 340 kts 287°
2026-05-09 02:58 40.87503 -73.63296 17207 ft 342 kts 287°
2026-05-09 02:59 40.88258 -73.66285 17673 ft 343 kts 287°
2026-05-09 02:59 40.89015 -73.69287 18128 ft 346 kts 287°
2026-05-09 02:59 40.89775 -73.72310 18526 ft 348 kts 287°
2026-05-09 02:59 40.90534 -73.75346 18948 ft 348 kts 287°
2026-05-09 03:00 40.91293 -73.78391 19379 ft 349 kts 287°
2026-05-09 03:00 40.92050 -73.81436 19817 ft 349 kts 287°
2026-05-09 03:00 40.92809 -73.84479 20250 ft 349 kts 287°
2026-05-09 03:00 40.93568 -73.87525 20681 ft 349 kts 287°
2026-05-09 03:01 40.94326 -73.90578 21092 ft 350 kts 287°
2026-05-09 03:01 40.95087 -73.93643 21479 ft 350 kts 287°
2026-05-09 03:01 40.95848 -73.96707 21874 ft 351 kts 287°
2026-05-09 03:01 40.96597 -73.99733 22257 ft 351 kts 287°
2026-05-09 03:02 40.97368 -74.02845 22624 ft 352 kts 286°
2026-05-09 03:02 40.98131 -74.05931 22997 ft 353 kts 286°
2026-05-09 03:02 40.98893 -74.09016 23368 ft 353 kts 286°
2026-05-09 03:02 40.99652 -74.12104 23693 ft 354 kts 286°
2026-05-09 03:03 41.00415 -74.15206 23999 ft 354 kts 286°
2026-05-09 03:03 41.01180 -74.18311 24311 ft 355 kts 287°
2026-05-09 03:03 41.01944 -74.21419 24631 ft 355 kts 287°
2026-05-09 03:03 41.02707 -74.24525 24942 ft 355 kts 287°
2026-05-09 03:04 41.03468 -74.27635 25244 ft 356 kts 287°
2026-05-09 03:04 41.04220 -74.30715 25545 ft 356 kts 287°
2026-05-09 03:04 41.04983 -74.33834 25835 ft 356 kts 287°
2026-05-09 03:04 41.05746 -74.36956 26115 ft 357 kts 286°
2026-05-09 03:05 41.06519 -74.40127 26405 ft 357 kts 286°
2026-05-09 03:05 41.07282 -74.43261 26676 ft 358 kts 286°
2026-05-09 03:05 41.08035 -74.46365 26942 ft 358 kts 287°
2026-05-09 03:05 41.08796 -74.49509 27202 ft 359 kts 287°
2026-05-09 03:06 41.09567 -74.52704 27464 ft 360 kts 286°
2026-05-09 03:06 41.10319 -74.55829 27726 ft 360 kts 287°
2026-05-09 03:06 41.11080 -74.58993 27987 ft 361 kts 287°
2026-05-09 03:06 41.11847 -74.62174 28244 ft 362 kts 287°
2026-05-09 03:07 41.12617 -74.65359 28531 ft 363 kts 287°
2026-05-09 03:07 41.13403 -74.68538 28820 ft 363 kts 289°
2026-05-09 03:07 41.14498 -74.71544 29183 ft 363 kts 297°
2026-05-09 03:07 41.15768 -74.74436 29531 ft 361 kts 296°
2026-05-09 03:08 41.17026 -74.77308 29880 ft 360 kts 296°
2026-05-09 03:08 41.18277 -74.80173 29998 ft 355 kts 296°
2026-05-09 03:08 41.19504 -74.82981 30017 ft 349 kts 296°
2026-05-09 03:09 41.21908 -74.88501 29997 ft 344 kts 296°
2026-05-09 03:09 41.24287 -74.94003 29997 ft 343 kts 296°
2026-05-09 03:10 41.26669 -74.99515 29993 ft 343 kts 296°
2026-05-09 03:10 41.29040 -75.05017 29984 ft 343 kts 295°
2026-05-09 03:11 41.31413 -75.10522 29986 ft 343 kts 295°
2026-05-09 03:11 41.33789 -75.16042 29982 ft 343 kts 295°